Hourly Data Report for October 05, 2017

All times are specified in Local Standard Time (LST). Add 1 hour to adjust for Daylight Saving Time where and when it is observed.

AGASSIZ RCS
BRITISH COLUMBIA

49°14'35.000" N
121°45'37.000" W
19.30 m
1100119
71113
WZA

Download Data

Hourly Data (October 2017)
Hourly Data Report for October 5, 2017
Temp Definition
°C
Dew Point Temp Definition
°C
Rel Hum Definition
%
Wind Dir Definition
10's deg

Wind Spd Definition
km/h
Visibility Definition
km
Stn Press Definition
kPa
Hmdx Definition


Wind Chill Definition


Weather Definition


TIME
00:00 10.3 2.8 60 35 10   101.96     LegendNANA
01:00 7.9 4.1 77 22 5   101.96     LegendNANA
02:00 6.4 4.4 87 36 1   102.00     LegendNANA
03:00 5.3 3.6 89 29 4   102.02     LegendNANA
04:00 4.2 3.1 93 28 2   102.04     LegendNANA
05:00 5.1 3.8 91 15 2   102.04     LegendNANA
06:00 5.8 3.9 88 15 2   102.04     LegendNANA
07:00 7.4 4.6 83 33 3   102.06     LegendNANA
08:00 11.0 4.6 65 5 6   102.06     LegendNANA
09:00 13.4 4.4 54 13 7   102.04     LegendNANA
10:00 14.8 3.1 45 35 4   102.01     LegendNANA
11:00 16.8 3.3 41 9 5   101.95     LegendNANA
12:00 17.6 2.5 36 24 5   101.90     LegendNANA
13:00 19.0 5.0 40 23 6   101.87     LegendNANA
14:00 19.7 3.3 34 23 7   101.83     LegendNANA
15:00 19.7 3.2 34 19 6   101.76     LegendNANA
16:00 19.8 5.3 38 20 3   101.71     LegendNANA
17:00 18.1 8.0 52   0   101.68     LegendNANA
18:00 13.5 8.3 71 1 2   101.72     LegendNANA
19:00 10.8 7.9 83   0   101.76     LegendNANA
20:00 8.4 6.8 89 35 3   101.76     LegendNANA
21:00 7.7 6.5 92 30 2   101.76     LegendNANA
22:00 7.1 6.3 95 28 2   101.72     LegendNANA
23:00 5.5 4.7 95   0   101.78     LegendNANA

Notes on Data Quality.

Legend

  • E = Estimated
  • M = Missing
  • NA = Not Available
  • ‡ = Partner data that is not subject to review by the National Climate Archives
Date modified: